This is the latest recevied weather packets stored in our database for station/object KG0HG. If no packets are shown the sender has not sent any weather packets the latest 10 day(s).
| Time | Temp. | Humidity | Pressure | Rain* | Wind** | Luminosity | Snow |
|---|---|---|---|---|---|---|---|
| 1777407548 | 12.78° C | 74% | 1015.8 hPa | 0 mm | - | 287 W/m² | - |
| 1777407247 | 13.33° C | 73% | 1015.8 hPa | 0 mm | - | 98 W/m² | - |
| 1777406941 | 13.89° C | 72% | 1015.4 hPa | 0 mm | - | 81 W/m² | - |
| 1777406641 | 13.89° C | 72% | 1015.3 hPa | 0 mm | - | 150 W/m² | - |
| 1777406338 | 13.33° C | 73% | 1015.5 hPa | 0 mm | - | 159 W/m² | - |
| 1777406037 | 13.33° C | 73% | 1015.4 hPa | 0 mm | - | 164 W/m² | - |
| 1777405734 | 13.33° C | 73% | 1015.6 hPa | 0 mm | - | 220 W/m² | - |
| 1777405430 | 13.33° C | 72% | 1015.4 hPa | 0 mm | - | 132 W/m² | - |
| 1777405127 | 13.33° C | 73% | 1015.2 hPa | 0 mm | - | 134 W/m² | - |
| 1777404826 | 12.78° C | 74% | 1015.5 hPa | 0 mm | - | 104 W/m² | - |
| 1777404523 | 12.78° C | 74% | 1015.2 hPa | 0 mm | - | 118 W/m² | - |
| 1777404218 | 12.78° C | 75% | 1015.5 hPa | 0 mm | - | 96 W/m² | - |
| 1777403915 | 12.78° C | 74% | 1015.3 hPa | 0 mm | - | 95 W/m² | - |
| 1777403614 | 12.78° C | 74% | 1015.2 hPa | 0 mm | - | 105 W/m² | - |
| 1777403309 | 12.78° C | 74% | 1015.4 hPa | 0 mm | - | 122 W/m² | - |
| 1777403005 | 12.78° C | 73% | 1015.4 hPa | 0 mm | - | 116 W/m² | - |
| 1777402700 | 12.78° C | 73% | 1015.1 hPa | 0 mm | - | 180 W/m² | - |
| 1777402399 | 12.78° C | 74% | 1015.3 hPa | 0 mm | - | 176 W/m² | - |
| 1777402098 | 12.78° C | 74% | 1015.4 hPa | 0 mm | - | 142 W/m² | - |
| 1777401793 | 12.78° C | 75% | 1015.2 hPa | 0 mm | - | 127 W/m² | - |
| 1777401488 | 12.78° C | 74% | 1015.4 hPa | 0 mm | - | 115 W/m² | - |
| 1777401184 | 12.78° C | 74% | 1014.9 hPa | 0 mm | - | 183 W/m² | - |
| 1777400880 | 12.22° C | 74% | 1015 hPa | 0 mm | - | 189 W/m² | - |
| 1777400576 | 13.33° C | 73% | 1015.4 hPa | 0 mm | - | 148 W/m² | - |
| 1777400274 | 12.78° C | 73% | 1015.4 hPa | 0 mm | - | 219 W/m² | - |
* Rain latest hour (hover to see other rain measurements)
** Current wind speed in m/s (hover to see current wind gust speed)